Temperature
-6 -7 -8 -9 -10 -11 -12 -12 -12 -12 -12 -12 -12 -12 -12 -12 -12 -12 -12 -11 -11 -11 -10 -10 -9 -9 -9 -8 -8 -8 -8 -8 -7 -7 -5 -5 -3 -2 -0 1 2 4 6
-6 -7 -8 -10 -10 -11 -12 -12 -12 -12 -12 -11 -11 -11 -11 -11 -11 -11 -11 -11 -10 -10 -10 -9 -9 -9 -9 -8 -8 -8 -8 -8 -7 -7 -6 -4 -3 -2 -1 1 2 4 5
-7 -7 -8 -9 -10 -11 -12 -12 -12 -12 -12 -11 -11 -11 -10 -10 -10 -10 -10 -10 -10 -10 -10 -9 -9 -9 -9 -9 -8 -8 -8 -8 -7 -7 -6 -5 -3 -2 -1 0 2 3 5
-7 -7 -8 -10 -10 -11 -12 -12 -12 -12 -12 -11 -11 -11 -10 -10 -10 -10 -10 -10 -10 -10 -10 -10 -10 -9 -9 -9 -9 -9 -9 -8 -8 -7 -6 -5 -3 -2 -2 -0 1 3 4
-7 -7 -8 -9 -10 -11 -11 -12 -12 -12 -12 -12 -11 -11 -10 -10 -10 -10 -10 -10 -10 -10 -10 -10 -10 -10 -10 -10 -9 -9 -9 -9 -8 -7 -6 -5 -4 -3 -2 -1 0 2 4
-7 -8 -8 -9 -10 -11 -11 -12 -12 -12 -12 -12 -12 -11 -11 -10 -10 -11 -11 -11 -11 -11 -11 -11 -10 -10 -10 -10 -10 -10 -10 -9 -9 -9 -8 -7 -5 -4 -3 -2 -1 1 3
-7 -7 -8 -9 -10 -11 -11 -12 -12 -12 -12 -12 -12 -12 -11 -11 -10 -11 -12 -12 -12 -12 -12 -12 -11 -11 -11 -10 -10 -10 -10 -10 -10 -9 -9 -8 -6 -5 -4 -3 -2 -0 1
-7 -7 -8 -9 -10 -10 -11 -12 -12 -12 -13 -13 -13 -12 -12 -12 -11 -11 -12 -12 -12 -12 -12 -12 -12 -12 -11 -11 -11 -10 -10 -10 -10 -10 -9 -8 -7 -6 -5 -4 -2 -1 1
-7 -7 -8 -9 -9 -10 -11 -11 -12 -12 -13 -13 -13 -13 -13 -12 -12 -11 -12 -12 -12 -13 -13 -13 -13 -12 -12 -12 -11 -11 -11 -10 -9 -9 -9 -8 -7 -6 -5 -3 -2 -1 0
-7 -8 -8 -9 -9 -10 -10 -11 -11 -12 -13 -13 -13 -13 -13 -13 -12 -12 -12 -13 -13 -13 -13 -13 -13 -13 -12 -12 -12 -12 -12 -11 -10 -9 -8 -7 -7 -6 -5 -4 -3 -2 -0
-7 -7 -8 -9 -9 -10 -10 -11 -11 -11 -12 -12 -12 -13 -13 -13 -13 -12 -12 -13 -13 -13 -14 -14 -14 -13 -13 -13 -13 -13 -12 -11 -10 -9 -9 -7 -7 -6 -5 -4 -3 -2 -1
-7 -7 -8 -8 -9 -9 -10 -10 -10 -11 -11 -12 -12 -12 -12 -12 -12 -12 -12 -12 -13 -13 -14 -14 -14 -14 -14 -14 -13 -13 -12 -11 -10 -10 -9 -8 -7 -6 -5 -4 -3 -2 -1
-6 -7 -7 -8 -9 -9 -10 -10 -10 -10 -11 -12 -12 -12 -12 -12 -12 -12 -12 -13 -13 -13 -14 -14 -14 -14 -14 -13 -14 -13 -12 -12 -11 -11 -10 -10 -9 -7 -6 -4 -3 -3 -2
-6 -6 -7 -7 -8 -8 -9 -10 -10 -10 -11 -11 -12 -12 -12 -11 -11 -11 -12 -12 -13 -13 -13 -13 -14 -14 -14 -14 -13 -13 -13 -13 -12 -12 -11 -10 -9 -8 -6 -5 -3 -2 -2
-6 -6 -6 -7 -7 -7 -8 -9 -10 -10 -11 -11 -11 -11 -12 -11 -11 -11 -11 -12 -12 -13 -13 -13 -14 -14 -14 -14 -14 -14 -13 -13 -12 -12 -11 -10 -9 -8 -7 -6 -4 -3 -2
-5 -6 -6 -6 -6 -7 -7 -7 -8 -9 -10 -11 -11 -11 -11 -11 -11 -11 -11 -12 -12 -13 -13 -13 -14 -14 -14 -14 -14 -14 -14 -14 -13 -12 -12 -11 -10 -9 -9 -7 -6 -4 -3
-5 -5 -5 -6 -6 -6 -6 -7 -7 -7 -8 -10 -10 -11 -11 -11 -11 -11 -11 -12 -12 -12 -13 -13 -14 -14 -14 -14 -14 -14 -14 -14 -13 -13 -12 -12 -11 -10 -9 -9 -8 -6 -5
-5 -5 -5 -5 -6 -6 -6 -7 -7 -7 -8 -8 -9 -10 -11 -11 -11 -11 -11 -11 -11 -12 -12 -13 -13 -13 -14 -14 -14 -14 -14 -14 -14 -13 -13 -12 -12 -11 -10 -10 -9 -8 -7
-5 -5 -5 -5 -5 -6 -6 -6 -7 -7 -8 -8 -9 -10 -11 -11 -11 -11 -11 -11 -12 -12 -12 -12 -12 -13 -13 -13 -14 -14 -14 -14 -14 -14 -13 -13 -12 -12 -11 -11 -10 -9 -8
-4 -5 -5 -5 -5 -6 -6 -6 -7 -7 -7 -8 -9 -10 -12 -11 -11 -11 -11 -11 -11 -12 -12 -12 -12 -12 -12 -13 -13 -13 -14 -14 -14 -14 -13 -13 -13 -12 -12 -12 -11 -10 -10
-4 -5 -5 -5 -6 -6 -6 -6 -7 -7 -7 -8 -9 -10 -12 -11 -11 -11 -11 -11 -11 -11 -11 -11 -11 -11 -12 -12 -12 -13 -13 -13 -14 -14 -14 -13 -13 -13 -12 -12 -12 -11 -11
-4 -5 -5 -5 -6 -6 -6 -7 -7 -7 -7 -8 -8 -9 -10 -10 -11 -11 -11 -11 -11 -11 -11 -11 -11 -11 -11 -11 -12 -12 -12 -13 -13 -13 -14 -14 -13 -13 -13 -13 -12 -12 -12
-4 -5 -5 -5 -6 -6 -6 -7 -7 -7 -8 -8 -8 -9 -10 -10 -11 -11 -11 -11 -11 -11 -10 -10 -10 -10 -10 -11 -11 -11 -12 -12 -13 -13 -13 -13 -13 -13 -13 -13 -13 -12 -12
-4 -5 -5 -5 -6 -6 -6 -7 -7 -7 -8 -8 -8 -9 -10 -10 -11 -11 -11 -11 -11 -10 -10 -10 -10 -10 -10 -10 -10 -10 -11 -12 -12 -13 -13 -13 -13 -13 -13 -13 -13 -13 -13
-4 -5 -5 -6 -6 -6 -7 -7 -7 -8 -8 -8 -9 -9 -9 -10 -10 -11 -11 -11 -10 -10 -10 -10 -9 -9 -9 -9 -10 -10 -10 -11 -12 -12 -13 -13 -13 -13 -13 -13 -13 -13 -13
-5 -5 -5 -6 -6 -6 -7 -7 -7 -8 -8 -8 -9 -9 -9 -10 -10 -11 -11 -11 -11 -10 -10 -9 -9 -9 -9 -9 -9 -9 -10 -10 -11 -12 -12 -13 -13 -13 -13 -14 -14 -14 -13
Wind_Speed
9 9 10 10 11 12 10 12 13 15 18 17 18 19 19 17 13 11 10 11 11 11 10 10 11 11 9 8 8 8 8 9 11 11 9 10 11 12 12 10 11 8 7
8 9 10 10 10 11 12 12 16 15 18 18 18 18 19 17 13 11 11 11 10 11 11 10 10 9 9 8 7 7 7 8 9 13 11 10 11 11 10 10 9 7 5
8 9 10 10 11 12 12 12 15 14 15 18 17 18 18 16 13 12 11 11 11 10 11 11 11 10 10 9 8 7 7 8 7 9 11 10 8 8 8 8 8 6 6
8 8 9 10 11 11 11 12 13 14 13 15 17 17 17 15 11 11 12 11 12 12 12 12 12 12 12 10 9 8 8 8 8 7 8 8 7 6 5 4 4 3 3
8 8 9 10 10 10 11 11 12 12 14 14 16 17 17 15 11 10 11 13 12 13 13 13 13 18 21 16 13 11 10 8 8 7 7 7 7 6 5 4 5 4 3
7 8 9 10 10 11 11 11 12 12 13 13 14 16 17 16 23 25 17 11 12 13 14 14 14 14 19 21 22 20 17 12 10 7 7 8 8 8 7 6 5 3 2
7 8 9 9 10 10 11 11 12 11 11 12 13 14 15 19 26 24 25 13 11 11 12 13 14 17 18 9 17 20 17 20 17 10 8 8 9 9 9 8 6 4 3
7 8 8 8 9 10 10 10 10 8 10 9 11 13 14 19 27 23 23 13 9 11 11 12 13 14 17 14 13 13 11 12 15 10 8 8 9 9 8 7 7 7 6
7 8 8 8 9 9 9 9 8 8 8 9 10 11 12 17 25 23 19 8 10 11 11 14 15 11 24 24 15 14 12 11 16 19 17 15 15 15 11 6 5 3 2
7 8 8 7 8 8 8 8 6 7 8 10 11 10 11 12 21 24 18 7 9 10 10 13 20 22 25 25 14 13 15 13 13 14 14 15 11 12 14 7 5 3 2
7 7 7 7 8 8 7 6 8 9 10 9 10 10 9 12 18 22 21 7 8 10 11 11 13 26 25 25 21 15 19 16 12 11 10 10 9 9 9 8 5 4 3
6 7 8 8 8 8 8 8 8 8 9 9 8 9 8 9 14 17 20 17 13 8 9 10 13 25 24 25 20 23 24 19 11 11 11 11 11 11 10 10 8 5 4
6 7 8 8 7 7 7 8 8 7 7 8 7 8 8 8 11 17 16 16 17 8 7 17 20 23 21 17 23 26 20 14 12 12 12 11 11 11 10 9 8 6 3
7 7 7 7 8 8 7 7 7 8 8 8 7 8 9 9 9 8 5 6 11 9 6 12 18 19 17 18 18 16 13 13 13 12 12 11 11 10 10 10 8 7 4
6 7 7 7 7 8 8 6 8 7 10 11 7 7 9 9 13 19 12 7 6 6 6 5 7 8 10 11 11 12 12 13 13 12 12 12 12 12 11 10 9 8 6
6 6 6 6 7 7 8 9 13 13 17 16 16 15 12 16 20 20 19 18 16 15 8 5 6 7 8 9 10 11 11 12 12 12 12 12 12 12 11 10 9 9 8
5 6 6 6 7 7 8 9 11 13 16 16 17 19 18 20 20 20 19 18 16 14 5 4 5 5 6 6 7 7 8 9 9 10 11 11 11 11 11 11 11 9 9
5 7 6 5 5 6 6 7 8 10 11 10 14 18 21 21 20 19 19 15 10 9 4 5 5 5 5 5 5 5 6 7 8 9 10 10 11 11 11 11 11 11 9
4 4 5 4 4 5 6 6 7 9 9 10 9 12 18 18 18 18 17 8 9 9 7 6 5 5 4 4 4 4 5 5 6 7 8 9 9 9 10 10 10 14 12
3 6 6 4 4 5 5 6 6 7 8 9 10 10 11 11 10 11 11 9 9 9 9 8 6 5 4 4 3 3 4 4 5 6 6 7 8 8 9 10 10 9 9
3 4 6 4 4 5 5 5 5 6 7 8 8 12 16 10 10 11 11 10 10 11 10 9 7 6 5 3 3 2 3 3 3 3 5 5 6 7 7 8 9 9 9
3 3 2 3 4 4 4 4 5 6 7 8 8 10 16 9 9 10 10 11 11 10 10 10 8 6 5 4 4 3 3 2 1 1 2 4 5 5 6 7 8 8 8
4 3 3 3 3 5 5 4 5 5 6 7 8 9 9 9 10 10 11 11 11 11 13 12 9 7 7 7 7 6 5 4 3 2 1 2 3 4 5 6 8 8 9
5 4 4 3 3 3 4 5 5 6 6 7 7 8 8 9 10 11 11 11 12 13 15 15 13 12 12 9 8 10 11 10 8 7 5 3 2 3 4 5 6 8 8
6 5 4 3 3 3 4 4 5 5 6 7 7 8 9 9 10 11 11 11 13 13 16 18 16 16 15 13 10 10 13 14 12 11 10 5 4 3 3 4 5 6 7
6 6 5 4 4 3 3 4 4 5 6 6 7 8 9 9 10 11 11 11 13 13 15 17 20 22 20 15 12 11 13 15 16 15 14 9 6 5 4 4 5 5 6
Wind_Direction
324 327 328 325 326 327 327 327 327 326 328 328 328 330 330 327 320 313 306 304 302 303 304 299 299 298 295 289 285 284 281 279 284 290 289 294 294 295 298 298 295 291 291
324 328 328 327 328 329 330 329 331 330 331 332 333 336 338 342 339 332 325 323 317 317 319 319 321 326 325 314 306 302 298 290 287 293 295 295 292 291 289 289 293 288 280
328 329 328 329 330 330 329 330 333 334 334 337 339 341 341 343 349 353 351 351 351 347 346 345 340 339 339 334 326 320 310 307 293 291 295 295 292 291 291 287 284 276 278
333 330 329 328 328 327 328 332 334 336 338 340 341 343 344 345 354 8 10 7 6 3 1 355 350 352 354 345 344 342 330 323 315 306 300 301 298 296 292 296 295 280 278
332 332 329 326 326 328 332 334 335 339 343 341 343 345 346 346 359 30 25 16 10 6 2 357 353 2 5 5 1 358 349 341 337 330 323 322 325 332 327 316 305 300 281
330 327 326 330 331 333 334 336 339 340 339 341 343 344 346 347 3 25 29 16 9 6 2 357 353 354 2 7 3 4 2 354 350 345 335 331 332 332 328 320 315 314 306
327 324 326 327 330 331 336 339 339 335 336 338 338 342 344 344 4 22 22 17 5 360 356 354 356 353 358 5 360 0 359 359 360 355 337 333 328 329 325 321 322 319 296
325 322 321 324 325 326 330 334 331 326 331 332 330 336 340 344 357 17 22 12 1 356 352 349 347 346 351 14 0 352 353 355 353 351 344 336 332 327 321 308 300 298 283
323 318 316 316 320 323 327 326 321 322 323 326 329 332 337 338 349 9 26 5 4 353 352 355 353 351 358 12 6 353 355 355 354 356 358 357 355 350 354 340 326 299 275
311 308 308 310 317 315 316 316 315 319 323 329 329 329 327 327 343 359 22 20 8 358 352 352 355 7 6 10 10 358 0 358 349 348 351 353 351 350 2 358 334 316 307
303 305 307 310 311 306 314 311 315 323 325 321 318 320 318 329 341 349 5 25 21 5 358 354 354 8 9 10 13 8 6 5 351 349 349 351 352 353 351 345 329 301 290
305 307 308 308 310 322 317 311 313 316 317 313 311 317 320 322 335 340 356 4 15 14 354 350 358 9 11 11 12 11 10 8 0 359 0 1 358 354 346 336 325 305 279
311 308 306 308 306 309 308 307 311 310 312 315 315 323 325 324 326 333 346 355 360 10 357 1 6 9 10 7 9 12 10 6 4 3 1 357 350 343 343 343 343 338 333
306 306 307 307 308 311 314 312 311 310 310 311 321 324 320 317 315 317 316 332 347 354 360 358 3 5 10 9 10 8 7 7 7 1 356 351 351 356 3 3 2 360 10
302 304 309 312 307 310 316 310 312 305 317 334 330 319 323 321 328 345 352 341 336 341 2 359 356 358 3 5 6 7 6 6 5 1 0 359 2 5 7 6 10 17 29
302 311 312 310 314 319 318 320 325 331 333 339 342 343 335 335 344 353 352 353 351 352 5 351 346 350 356 359 1 2 4 5 3 1 3 3 4 6 7 11 18 24 29
282 300 305 312 317 321 325 328 328 332 337 342 346 346 345 348 355 357 359 360 357 358 360 330 328 332 338 345 349 354 356 356 358 2 4 4 4 7 12 15 20 24 26
276 297 307 300 306 312 316 321 325 329 332 334 339 345 348 353 356 358 2 0 349 351 329 316 313 314 319 328 338 344 347 353 360 2 4 4 5 9 14 17 20 26 26
278 283 289 297 307 311 314 320 326 330 331 331 333 340 346 351 354 357 1 354 341 338 331 319 307 303 303 309 320 331 340 349 357 359 4 4 4 9 14 17 20 28 35
267 301 317 323 322 321 321 326 332 333 333 334 336 334 337 350 351 349 350 346 343 336 331 324 314 300 293 289 297 314 332 346 357 1 1 3 3 8 12 16 21 26 32
247 288 318 325 313 308 308 317 321 323 327 330 331 333 349 355 345 342 343 342 340 337 333 325 315 304 288 271 262 273 296 321 345 357 0 3 6 10 9 16 23 29 36
219 244 275 293 299 304 312 317 316 316 321 327 329 334 347 350 341 339 338 336 333 330 328 324 315 301 279 259 245 236 240 258 286 346 4 8 12 15 16 21 27 34 40
201 225 256 279 288 314 330 317 316 318 323 325 328 336 341 341 338 336 334 331 329 328 328 326 319 307 291 266 241 221 217 219 206 177 135 46 31 27 28 29 30 37 45
194 209 230 259 280 296 307 313 317 322 324 324 329 333 335 334 331 330 330 328 328 327 327 326 321 311 300 287 254 229 221 214 197 179 162 133 92 56 47 44 42 42 45
191 202 214 231 258 283 298 307 314 320 324 327 330 332 330 328 328 328 328 327 326 326 325 325 323 321 312 299 271 236 223 213 198 181 166 148 130 106 84 67 61 58 58
192 199 207 216 233 252 273 292 305 313 316 321 325 324 323 323 323 324 325 326 328 326 324 325 322 321 317 309 286 252 228 212 200 185 168 155 145 137 121 98 91 79 75
Height
1543 1537 1530 1524 1518 1511 1505 1498 1491 1484 1477 1469 1460 1450 1441 1433 1427 1422 1418 1414 1412 1409 1407 1405 1403 1400 1398 1395 1392 1390 1387 1385 1381 1376 1375 1373 1372 1371 1371 1372 1372 1375 1381
1541 1535 1529 1523 1516 1510 1503 1497 1491 1484 1477 1469 1461 1452 1443 1436 1430 1424 1419 1415 1412 1409 1407 1404 1402 1399 1396 1392 1389 1386 1383 1380 1378 1373 1370 1369 1367 1367 1367 1368 1369 1372 1377
1540 1534 1528 1521 1515 1509 1502 1496 1490 1484 1477 1470 1462 1454 1447 1440 1434 1428 1423 1419 1415 1411 1408 1405 1402 1398 1395 1391 1387 1383 1380 1376 1373 1370 1366 1364 1363 1363 1363 1364 1365 1369 1372
1539 1533 1527 1520 1514 1508 1502 1497 1490 1484 1478 1471 1464 1457 1450 1444 1438 1432 1427 1422 1418 1414 1410 1406 1402 1399 1395 1390 1386 1381 1377 1373 1370 1367 1364 1361 1360 1359 1360 1360 1363 1365 1369
1537 1532 1526 1520 1514 1508 1502 1497 1491 1485 1479 1473 1466 1459 1453 1446 1441 1435 1430 1425 1420 1416 1412 1407 1403 1400 1396 1391 1386 1380 1375 1371 1367 1364 1361 1359 1358 1357 1358 1358 1360 1361 1365
1536 1531 1525 1520 1514 1508 1502 1497 1491 1485 1480 1474 1467 1461 1455 1449 1445 1439 1433 1427 1422 1417 1412 1408 1404 1399 1395 1389 1385 1380 1375 1371 1366 1363 1360 1358 1356 1356 1356 1357 1358 1359 1363
1536 1531 1525 1519 1514 1508 1502 1497 1491 1486 1480 1474 1469 1463 1457 1451 1447 1441 1435 1429 1424 1419 1414 1409 1404 1400 1395 1389 1383 1378 1373 1368 1366 1363 1359 1357 1355 1355 1354 1354 1355 1356 1360
1535 1530 1525 1519 1514 1508 1502 1497 1491 1486 1481 1475 1470 1465 1459 1453 1449 1443 1437 1431 1425 1420 1415 1410 1406 1401 1396 1390 1383 1377 1372 1367 1363 1360 1358 1355 1354 1353 1352 1352 1353 1355 1358
1534 1529 1524 1519 1514 1508 1502 1496 1491 1486 1481 1476 1471 1466 1460 1454 1450 1445 1438 1433 1427 1422 1417 1412 1407 1402 1397 1391 1383 1377 1372 1367 1363 1359 1356 1354 1352 1351 1350 1351 1352 1354 1356
1532 1528 1523 1519 1514 1508 1503 1497 1491 1486 1481 1476 1471 1466 1461 1456 1451 1446 1441 1435 1429 1423 1418 1413 1408 1404 1398 1392 1385 1379 1373 1367 1362 1358 1354 1352 1350 1348 1348 1348 1350 1352 1354
1531 1527 1523 1518 1514 1509 1503 1498 1492 1487 1481 1476 1471 1466 1461 1457 1451 1447 1443 1437 1431 1426 1420 1415 1410 1406 1399 1393 1387 1382 1377 1370 1363 1358 1354 1351 1348 1347 1346 1347 1348 1350 1353
1530 1526 1522 1518 1513 1508 1503 1498 1492 1487 1481 1475 1470 1465 1461 1456 1452 1447 1444 1439 1434 1428 1423 1418 1413 1408 1401 1395 1389 1384 1378 1371 1365 1360 1355 1351 1348 1346 1345 1346 1347 1349 1352
1529 1526 1522 1517 1513 1508 1502 1497 1491 1486 1480 1475 1470 1465 1460 1456 1451 1447 1443 1439 1435 1430 1425 1421 1415 1410 1403 1396 1392 1386 1379 1373 1368 1362 1358 1354 1350 1348 1346 1346 1347 1349 1352
1528 1525 1521 1516 1512 1507 1502 1496 1490 1485 1479 1475 1470 1465 1460 1455 1450 1446 1442 1438 1434 1430 1425 1421 1416 1411 1406 1400 1394 1388 1382 1377 1373 1367 1363 1358 1354 1350 1347 1347 1348 1350 1352
1527 1524 1520 1516 1511 1506 1501 1496 1490 1485 1481 1477 1471 1466 1461 1455 1452 1448 1444 1438 1434 1430 1426 1421 1416 1411 1406 1402 1397 1392 1387 1382 1376 1372 1367 1362 1357 1353 1350 1349 1349 1350 1352
1525 1522 1518 1514 1510 1505 1499 1495 1491 1486 1480 1476 1472 1468 1462 1458 1453 1448 1443 1439 1434 1430 1425 1421 1417 1413 1409 1405 1401 1396 1391 1386 1382 1377 1372 1367 1362 1358 1355 1353 1352 1352 1353
1523 1521 1517 1513 1509 1504 1499 1493 1487 1484 1480 1475 1470 1466 1462 1458 1453 1448 1443 1438 1434 1429 1425 1421 1418 1415 1412 1408 1405 1401 1396 1392 1388 1383 1378 1373 1369 1365 1361 1358 1356 1356 1356
1522 1519 1516 1513 1509 1504 1499 1494 1488 1481 1476 1472 1468 1464 1460 1456 1452 1448 1443 1438 1433 1429 1425 1421 1418 1415 1413 1410 1407 1404 1400 1396 1392 1388 1383 1379 1375 1371 1367 1364 1362 1361 1360
1520 1518 1515 1512 1508 1504 1500 1495 1489 1483 1477 1471 1466 1462 1459 1454 1451 1447 1442 1438 1433 1429 1425 1422 1419 1416 1413 1411 1408 1406 1403 1400 1396 1392 1388 1385 1381 1377 1374 1371 1368 1367 1366
1518 1516 1514 1511 1508 1504 1500 1495 1489 1484 1478 1472 1466 1461 1457 1452 1448 1445 1441 1438 1434 1430 1426 1422 1419 1416 1413 1411 1409 1407 1405 1402 1400 1397 1393 1390 1387 1384 1381 1378 1375 1373 1371
1515 1514 1512 1510 1507 1503 1499 1495 1490 1484 1479 1473 1467 1462 1458 1453 1448 1445 1441 1438 1434 1430 1426 1422 1419 1416 1413 1410 1409 1407 1406 1404 1402 1400 1398 1395 1392 1390 1387 1385 1382 1380 1378
1512 1511 1510 1508 1506 1502 1499 1495 1490 1485 1479 1474 1468 1463 1458 1453 1449 1445 1441 1438 1434 1430 1426 1423 1419 1415 1412 1410 1408 1406 1405 1405 1404 1402 1401 1399 1397 1395 1393 1391 1389 1387 1386
1509 1508 1507 1506 1504 1501 1498 1494 1490 1485 1480 1474 1468 1463 1458 1453 1449 1445 1441 1437 1433 1430 1426 1422 1418 1415 1411 1409 1407 1405 1404 1404 1404 1403 1403 1402 1401 1399 1398 1397 1395 1393 1392
1505 1505 1505 1503 1502 1499 1497 1493 1489 1484 1479 1474 1469 1463 1458 1453 1449 1445 1441 1437 1433 1429 1425 1421 1417 1414 1410 1407 1405 1403 1402 1402 1402 1403 1403 1403 1403 1403 1402 1401 1400 1400 1399
1501 1501 1501 1500 1499 1497 1495 1492 1488 1484 1479 1474 1469 1463 1458 1453 1449 1444 1440 1436 1432 1428 1424 1420 1416 1412 1408 1405 1402 1400 1399 1399 1400 1401 1403 1404 1404 1405 1405 1405 1404 1404 1404
1496 1497 1497 1497 1496 1494 1492 1490 1486 1482 1478 1473 1468 1463 1458 1453 1448 1443 1439 1435 1431 1427 1423 1418 1414 1410 1406 1403 1400 1397 1396 1396 1397 1399 1401 1403 1405 1406 1407 1407 1408 1408 1409